Theta_e
302 302 303 303 304 304 304 304 304 304 304 304 304 305 305 305 305 306 306 305 306 305 306 306 306 307 307 307 307 307 307 307 308 308 307 307 307 307 307 307 306 306 306 306 307 307 306 306 305 306 307 305 303 301 301 301 300 300 300 300 300 300 298 296 294 295 299 303 302 302 297 294 290 290 289 289 289 288 288 288 288 288 287 287 288
300 301 302 302 302 301 301 302 302 302 302 303 303 303 303 303 303 302 302 304 304 304 304 305 305 305 305 305 305 305 305 306 306 306 305 304 305 305 305 305 304 304 304 303 303 304 303 302 302 303 304 303 303 301 300 299 298 298 298 297 297 297 298 296 295 294 294 299 297 292 291 291 290 290 288 288 288 288 287 287 287 287 287 287 287
299 300 300 300 300 300 300 300 300 300 301 301 301 301 300 300 300 300 301 302 302 302 302 303 303 303 303 303 303 303 303 303 304 303 303 302 302 303 304 303 303 302 301 301 301 301 301 300 300 301 303 301 300 300 301 300 299 298 298 298 297 298 298 297 296 294 294 296 299 299 296 289 288 289 288 288 287 287 286 286 285 286 286 286 286
298 299 299 299 299 299 298 298 299 299 299 299 298 299 299 299 298 299 299 300 300 301 301 300 301 300 300 300 300 300 299 300 300 301 301 301 300 301 301 301 301 301 300 300 300 300 300 299 299 299 299 298 299 299 300 299 298 298 297 297 297 297 298 298 297 296 295 295 297 297 298 290 289 290 288 287 286 286 286 286 286 285 285 285 285
297 298 298 298 298 297 297 298 297 297 297 297 297 297 297 297 298 297 297 298 299 299 299 299 299 299 299 299 299 299 299 299 299 299 300 300 299 299 300 300 300 300 300 299 296 299 299 298 299 300 300 299 298 298 299 298 298 297 297 297 297 297 296 296 295 295 294 293 294 296 293 291 290 288 287 285 285 285 285 284 284 284 284 285 285
296 297 297 297 297 296 296 296 296 296 296 296 296 296 296 296 296 297 297 297 297 298 298 298 298 298 299 299 299 298 298 299 299 299 299 300 299 299 299 298 298 298 299 299 299 299 299 299 299 299 299 298 298 299 298 297 298 297 297 296 296 296 295 295 295 294 293 293 293 293 292 289 287 285 286 286 285 283 283 283 283 283 283 283 283
296 296 296 296 296 295 295 295 295 295 295 295 295 296 296 295 296 295 296 296 296 296 297 297 297 297 297 298 298 298 298 299 299 299 299 299 299 298 298 298 298 298 298 298 298 298 298 298 298 298 298 298 298 298 298 298 297 297 297 296 296 295 294 294 294 293 292 292 292 293 292 291 288 288 286 285 285 284 282 281 280 282 282 282 281
295 295 295 295 295 294 294 294 294 294 295 295 295 295 295 295 295 295 295 295 296 296 296 296 296 297 297 297 297 298 297 297 298 298 299 299 298 298 298 297 297 297 297 297 298 298 298 298 298 298 298 298 298 298 298 297 298 297 297 297 296 295 294 294 293 292 291 291 291 291 292 292 290 287 286 284 283 283 283 282 280 280 280 281 282
294 294 294 294 294 294 294 294 295 295 294 295 295 294 294 295 295 295 295 295 296 295 295 295 295 295 296 296 296 297 297 297 298 298 298 298 298 298 298 297 297 296 296 296 297 297 297 298 298 298 297 293 293 294 295 296 298 296 297 297 295 294 294 293 293 293 292 292 291 292 291 290 290 287 282 282 281 281 283 283 282 281 280 280 281
294 294 293 293 293 293 293 293 293 294 293 293 293 293 293 293 294 294 294 295 295 295 295 295 295 295 295 295 296 296 296 297 293 292 292 294 296 296 297 297 297 296 296 295 296 296 297 297 297 292 291 291 291 291 292 293 293 295 297 297 296 294 292 292 292 292 292 291 291 291 290 289 290 289 284 283 283 284 283 282 281 281 280 279 280
293 293 292 292 292 293 292 292 292 292 292 292 292 291 292 292 292 292 292 292 293 294 294 294 295 295 295 295 295 296 297 296 292 293 293 293 293 295 295 296 296 296 296 296 295 296 297 297 298 295 292 291 292 290 292 292 292 292 292 293 294 295 293 291 291 292 291 291 291 291 290 289 290 289 287 285 284 283 283 283 282 280 278 277 275
292 292 292 292 292 291 291 291 291 291 291 290 290 290 290 290 290 291 291 290 291 292 292 292 293 293 294 294 294 295 295 292 293 293 293 293 292 294 295 295 296 296 296 296 296 296 296 297 297 298 297 297 297 297 293 291 291 292 292 292 292 293 293 293 292 291 291 290 290 290 290 290 290 290 288 287 283 283 283 283 281 280 279 278 278
291 291 291 291 290 291 290 290 290 290 290 289 288 288 288 289 289 289 289 289 289 290 291 291 291 292 293 292 292 293 293 292 292 292 292 292 292 292 294 295 295 295 296 296 296 296 296 296 296 296 297 291 292 295 296 295 292 291 291 291 291 292 293 294 294 292 293 291 290 290 291 290 290 290 289 287 285 283 283 281 281 281 280 279 279
291 290 290 290 290 290 289 289 289 289 289 288 289 288 288 288 288 289 289 289 289 289 289 289 290 291 291 291 291 292 292 291 292 292 291 292 292 292 294 294 294 295 295 295 295 296 296 295 295 295 296 296 296 296 296 295 294 294 293 292 292 291 291 292 292 291 291 291 291 290 291 292 290 291 290 288 285 283 282 281 281 281 280 280 282
289 289 289 289 289 289 288 288 288 288 288 287 287 287 287 287 287 287 288 288 288 288 288 288 288 288 289 289 290 290 291 290 291 291 291 292 292 292 293 294 294 294 295 295 295 295 295 296 295 295 295 295 296 295 295 293 292 291 290 290 291 292 292 292 292 292 292 292 292 292 292 293 292 291 290 288 287 285 285 283 283 283 283 283 282
288 288 288 288 287 288 287 287 287 287 286 286 286 286 286 286 286 287 287 287 287 288 288 288 287 287 288 288 288 289 290 290 290 290 291 291 292 291 292 292 293 293 293 294 294 295 295 295 295 294 294 294 293 292 292 293 291 289 289 289 289 290 290 291 292 292 293 293 293 292 292 292 292 291 290 288 287 286 286 285 285 284 282 280 279
287 286 286 287 286 286 286 286 285 285 285 285 284 285 285 285 286 287 286 286 286 286 286 287 287 287 287 287 287 288 289 289 289 290 290 291 291 290 290 290 290 291 292 292 293 293 294 294 294 293 293 293 292 293 293 291 290 289 288 288 288 289 289 290 291 292 292 292 292 293 293 293 294 294 294 293 288 287 285 283 282 283 281 278 279
285 285 285 285 285 285 285 284 283 283 284 283 283 284 284 285 285 285 285 285 285 286 286 286 287 287 286 286 287 286 287 288 288 289 289 290 289 289 289 289 289 289 290 291 292 292 292 288 289 292 292 292 292 292 292 291 289 289 288 288 287 288 288 290 289 289 290 291 291 291 291 292 292 293 293 293 290 288 284 282 283 283 280 280 278
283 283 284 284 284 284 284 283 282 282 282 282 282 283 283 284 284 285 285 285 285 286 286 286 286 286 286 286 285 286 286 287 288 289 289 289 289 289 289 288 288 288 289 290 291 292 292 290 288 289 291 291 291 292 292 290 289 288 288 288 287 287 288 289 288 288 287 287 287 288 288 289 289 289 289 291 290 287 286 286 285 283 280 281 279
283 283 283 283 283 282 282 281 281 281 281 281 282 282 283 283 283 283 283 284 284 285 285 285 284 285 286 286 286 287 287 287 287 288 289 289 289 288 288 288 287 288 288 288 288 289 290 291 291 291 291 291 291 292 291 291 289 289 288 288 287 287 289 289 288 288 288 287 287 287 287 287 287 287 287 287 287 287 286 286 285 284 282 282 280
281 281 282 282 282 281 281 281 280 280 280 280 281 281 282 282 282 282 282 283 283 283 283 283 284 284 285 286 286 286 287 286 287 288 288 289 289 288 287 287 288 288 288 288 288 288 288 289 290 290 291 291 291 291 291 291 291 289 288 288 288 289 290 289 288 287 287 287 286 286 287 287 287 287 287 286 286 286 286 286 286 285 284 282 281
280 281 281 281 281 280 280 280 279 279 279 280 279 279 280 281 281 281 281 281 281 281 282 283 283 284 285 285 286 286 287 286 287 287 288 288 289 289 287 287 288 287 287 287 287 287 288 289 289 289 289 290 290 290 290 291 291 289 289 290 291 291 289 289 289 288 288 287 286 286 286 285 285 285 285 285 285 286 285 285 285 285 285 285 283
279 280 280 280 280 279 278 278 277 278 278 279 278 278 279 279 279 279 280 280 280 280 281 282 282 283 284 285 286 286 286 287 286 286 287 288 288 289 289 288 288 287 286 286 286 287 288 288 288 287 288 288 289 289 290 290 289 289 290 291 291 290 290 289 288 288 287 286 285 284 284 284 284 284 284 284 285 285 285 285 284 284 284 285 284
279 279 279 278 278 277 276 277 277 278 278 278 278 277 277 277 277 278 279 279 279 279 280 281 282 282 282 283 284 285 286 286 286 285 286 287 288 288 288 288 288 287 287 287 286 287 287 287 287 288 288 288 288 288 288 288 288 289 290 290 290 289 289 288 288 287 286 285 284 283 283 284 284 284 284 284 284 284 284 284 284 283 283 280 279
278 277 276 276 275 275 275 276 277 277 277 276 275 275 275 276 276 277 278 278 278 279 279 280 280 281 281 281 282 283 284 285 285 285 285 285 286 287 287 288 288 288 286 286 287 286 286 287 287 287 287 287 287 287 287 287 287 288 288 288 287 288 288 287 287 287 285 284 283 283 283 283 284 284 285 285 284 283 281 277 276 275 275 275 274
275 275 274 273 273 274 274 275 275 275 274 275 274 274 274 274 275 275 276 277 278 278 278 279 279 279 279 280 281 281 282 283 283 284 285 285 285 286 287 287 286 285 285 285 285 286 286 286 286 286 286 286 286 286 286 286 286 287 287 287 287 288 287 287 286 285 284 283 283 282 283 284 284 284 284 283 281 279 276 275 274 273 275 274 273
273 273 272 272 273 274 273 273 273 272 272 273 273 273 274 274 274 275 275 276 276 276 277 277 277 278 278 279 279 280 280 281 282 283 284 285 285 285 285 285 285 285 285 285 285 285 285 285 285 286 286 286 285 285 285 285 285 285 286 287 287 287 287 287 286 285 284 283 283 282 283 283 284 282 280 280 279 278 277 276 275 274 275 274 270
271 270 271 272 272 272 271 271 271 271 271 271 271 272 273 273 273 273 274 274 274 274 275 276 276 277 277 278 278 278 279 280 281 281 282 283 283 283 284 284 284 284 284 285 285 286 285 285 286 286 285 285 285 285 285 286 286 286 286 287 286 286 286 286 286 286 285 285 284 283 283 283 280 280 280 279 278 276 276 276 276 274 274 273 270
270 270 271 271 270 271 270 270 269 269 269 270 271 272 271 271 272 273 274 275 275 275 275 276 277 277 277 277 276 276 277 278 280 282 283 283 283 282 282 283 283 283 284 285 285 285 285 285 285 285 285 284 284 284 284 285 285 285 285 286 286 286 285 285 284 284 284 284 283 282 281 280 279 280 279 278 277 275 276 276 276 274 274 275 270
269 269 269 269 268 268 268 268 268 268 269 269 269 270 272 274 273 273 273 275 277 278 278 276 277 277 277 277 278 277 277 278 282 283 283 283 284 284 284 284 285 284 285 285 285 283 283 283 284 284 284 284 283 283 283 283 283 284 284 285 285 284 284 285 285 285 284 283 283 282 280 278 278 278 278 277 275 275 276 276 274 275 274 273 269
267 266 266 266 266 266 266 266 267 267 267 268 268 268 269 270 274 275 275 274 276 277 278 278 279 279 278 277 278 281 281 281 282 283 283 284 284 284 284 284 284 284 285 284 283 283 283 282 283 283 284 284 283 283 283 283 283 283 283 283 284 284 284 284 284 284 284 283 282 281 280 278 277 278 277 275 274 274 274 275 275 275 273 270 269
263 263 264 264 264 265 265 265 265 266 266 267 267 268 268 268 269 272 274 274 275 276 277 278 278 279 279 279 278 278 280 281 282 282 283 283 283 283 283 283 284 285 285 285 283 282 283 282 282 283 284 283 283 283 283 283 283 282 282 282 282 283 283 283 284 284 284 283 282 281 279 278 277 277 276 275 274 273 273 274 274 274 272 270 270
260 261 262 262 263 264 264 264 265 265 265 265 266 267 267 267 266 267 269 272 274 274 275 277 278 278 279 279 280 280 280 281 281 282 282 282 282 282 283 284 284 285 285 283 282 282 282 282 282 283 283 283 283 283 283 283 282 282 282 282 282 283 283 284 285 284 283 283 282 281 279 278 276 275 275 275 274 273 274 273 273 271 271 271 269
260 261 261 261 262 262 263 264 264 264 265 265 265 265 266 266 266 266 266 267 269 272 274 275 276 277 278 278 279 279 280 280 280 280 281 281 282 282 283 282 284 285 284 282 282 281 282 282 282 283 283 284 283 283 283 283 282 282 282 282 282 283 283 284 284 283 283 282 281 280 279 278 276 275 275 275 274 274 273 273 272 271 270 269 268
260 260 260 261 262 262 263 263 263 263 264 264 264 265 265 266 266 266 266 267 267 268 269 271 274 276 275 276 278 279 279 279 280 280 281 281 282 283 283 281 280 281 282 282 282 282 282 282 282 282 283 283 283 283 283 282 282 282 282 282 282 283 283 283 283 283 282 282 281 279 278 278 276 275 275 274 274 273 273 273 272 271 271 270 268
259 260 261 261 261 262 262 262 263 263 263 263 264 265 265 265 266 266 267 267 267 267 268 270 271 273 275 276 277 278 279 279 280 280 281 281 282 283 279 279 279 280 280 281 281 282 282 282 282 282 283 283 283 283 283 282 282 282 282 282 282 282 282 282 282 282 281 281 280 279 278 278 277 275 275 275 274 274 273 273 273 272 271 270 268
260 260 261 261 261 262 261 262 262 263 263 263 264 264 265 265 266 266 266 266 267 268 268 269 270 271 273 275 276 277 278 279 279 280 281 281 282 281 280 280 279 279 279 280 281 281 281 282 282 283 283 283 283 283 283 282 282 282 282 282 282 282 282 282 282 281 280 279 279 278 278 277 277 276 275 274 274 274 273 273 273 271 270 269 266
259 260 260 261 261 261 261 262 262 263 263 264 264 264 264 265 265 265 266 266 267 267 267 268 270 270 270 272 275 275 276 278 278 279 279 280 279 279 279 279 279 279 279 280 280 281 281 281 282 282 282 282 282 282 282 282 282 282 282 282 282 282 282 281 281 280 279 279 278 278 278 277 276 276 275 274 273 273 273 272 272 270 268 267 265
260 260 261 261 261 261 262 262 262 263 263 263 263 264 264 264 265 265 266 266 266 267 268 268 270 270 271 273 273 275 275 274 274 274 276 276 277 278 277 277 277 277 277 278 278 279 279 280 281 282 282 282 282 282 282 281 281 281 281 281 281 281 280 280 280 279 278 278 278 278 277 277 276 276 275 275 273 273 272 271 270 268 267 266 266
260 260 261 261 261 261 262 262 262 262 263 263 263 264 264 264 264 265 265 266 266 267 268 269 269 270 272 273 273 273 272 272 273 274 274 274 275 274 274 273 273 273 273 274 275 276 277 278 280 280 281 281 281 281 281 280 280 280 280 280 280 279 279 279 279 278 277 277 277 277 276 276 276 275 275 274 273 272 271 270 269 268 268 267 267
260 260 260 261 261 262 262 262 262 263 263 263 263 264 264 265 265 266 266 267 267 268 268 268 269 270 272 272 273 274 272 271 272 273 272 272 272 271 271 270 270 270 271 271 272 274 275 277 278 278 278 278 278 278 278 278 278 278 278 278 279 278 279 278 277 277 277 276 276 276 275 275 275 274 272 271 272 271 270 270 269 269 268 268 266
260 260 261 261 261 262 262 262 263 263 263 263 264 264 264 265 265 266 266 266 267 267 267 268 268 269 271 272 272 272 270 270 271 270 270 270 269 269 269 268 268 268 268 269 270 270 272 274 274 274 275 275 276 276 277 277 277 278 278 278 277 277 276 276 276 276 276 275 275 274 273 273 273 271 270 271 270 270 269 269 268 267 266 264 263
260 260 261 261 261 261 261 262 262 262 263 263 263 264 264 264 264 265 265 265 266 266 266 266 267 268 268 270 269 269 269 268 268 268 267 267 267 267 266 266 266 266 267 268 268 269 270 271 271 272 271 272 273 274 275 276 276 277 277 276 275 275 274 274 274 274 274 273 272 272 272 271 270 270 270 269 269 269 268 267 266 266 265 264 263
260 260 260 261 261 261 262 262 262 262 262 263 263 263 263 263 263 263 263 264 264 265 265 265 266 266 266 267 267 267 266 266 265 265 265 265 265 264 265 265 265 265 266 266 267 267 268 268 269 270 270 270 270 271 272 273 274 275 275 275 274 273 273 273 273 273 273 272 271 271 271 270 269 269 268 268 268 266 266 266 265 265 264 263 262
259 259 260 260 261 261 261 262 262 262 262 262 262 262 262 262 262 262 263 263 263 264 264 264 264 264 264 264 264 264 264 264 264 264 264 263 263 263 264 264 264 264 264 265 265 266 266 267 267 267 267 267 268 268 269 269 270 272 273 273 273 273 273 273 273 273 272 272 271 270 269 269 268 268 268 268 267 267 266 265 265 263 264 263 262
259 259 259 260 260 260 261 261 261 261 261 261 261 261 261 262 262 262 262 262 262 262 262 263 263 263 263 262 263 263 263 263 263 263 263 263 263 263 263 263 262 263 263 263 263 263 264 265 265 265 265 265 265 265 266 266 267 268 269 270 270 271 271 272 272 272 272 271 270 270 269 269 268 267 266 266 266 265 265 264 264 264 263 263 263
258 259 259 259 260 260 260 260 260 260 260 260 260 260 261 261 261 261 261 261 261 262 262 261 261 261 262 262 262 262 262 262 262 262 262 262 262 262 262 262 261 262 262 262 262 262 262 262 263 263 263 264 264 263 263 264 265 266 267 268 269 270 271 271 272 272 272 272 271 270 269 267 266 266 265 266 265 265 264 264 264 264 263 262 262
258 258 259 259 259 259 259 259 259 259 260 260 260 260 260 260 260 260 261 261 261 261 261 261 260 261 261 261 261 261 261 261 262 262 261 261 261 261 261 261 260 260 261 260 261 261 261 261 262 262 263 263 263 263 263 264 264 265 265 266 266 267 267 267 270 270 271 271 270 269 268 267 266 266 266 266 265 264 264 263 263 263 262 261 261
257 258 258 258 259 259 259 258 258 259 259 259 259 259 260 260 260 260 260 260 260 260 260 260 260 260 260 260 260 261 261 261 261 261 261 261 261 261 261 260 260 260 260 260 260 260 260 261 261 262 262 263 263 263 263 263 263 263 263 264 265 265 265 265 266 268 267 269 268 267 267 266 266 265 265 264 264 264 263 263 262 262 261 261 261
257 257 257 258 258 258 258 258 258 258 259 259 259 259 259 259 259 259 259 259 259 260 260 260 260 260 260 260 260 260 260 260 260 260 260 260 260 260 260 260 260 260 259 259 259 259 260 261 262 262 262 263 263 263 263 263 263 263 263 264 264 264 265 264 264 264 266 267 267 266 266 265 265 264 264 264 263 263 262 262 261 261 261 260 260
256 257 257 257 257 258 258 257 257 258 258 258 258 258 258 258 258 259 259 259 259 259 259 259 259 259 259 260 260 260 260 260 260 260 260 260 260 259 259 259 259 259 259 258 259 259 259 260 261 262 262 263 264 264 264 264 264 263 263 263 262 262 263 263 264 263 264 263 265 265 265 264 264 263 262 262 262 262 260 260 260 260 259 259 259
Wind_Speed
5 4 3 4 5 6 5 4 4 3 3 3 4 3 2 2 3 4 5 5 5 5 6 6 7 7 7 7 7 8 8 8 8 8 9 11 10 11 11 11 11 10 10 12 10 12 13 13 13 13 12 12 9 9 10 10 10 11 11 11 12 10 11 13 15 17 15 10 9 8 4 6 6 7 10 6 7 8 12 7 8 9 11 11 13
5 5 5 5 6 6 6 4 3 3 3 2 3 2 1 2 3 3 4 4 4 5 6 6 6 7 7 7 7 8 8 9 9 9 10 10 11 10 10 11 11 12 10 12 10 9 9 11 12 12 11 12 12 12 10 10 10 10 11 11 12 11 10 11 15 15 21 13 8 1 3 6 8 7 10 8 9 7 9 7 6 8 9 9 10
5 6 6 6 6 5 4 3 3 3 2 2 2 2 2 2 2 3 3 3 3 4 4 5 6 6 7 7 7 7 8 9 8 9 10 10 11 11 11 11 11 11 11 11 10 9 11 11 13 12 10 11 12 12 12 12 11 12 13 11 13 13 12 14 13 16 19 18 9 10 9 6 10 7 8 7 8 6 8 9 9 10 10 9 10
6 6 5 6 5 5 5 4 4 4 3 3 4 4 3 3 2 3 3 3 4 3 4 4 5 6 6 7 7 8 8 8 9 9 11 11 11 12 12 12 12 11 12 11 10 10 11 11 13 11 11 12 13 12 11 10 11 11 12 11 12 14 13 14 16 16 16 17 16 10 9 7 9 6 4 4 6 7 9 7 5 7 8 10 12
6 6 6 6 6 6 6 5 5 5 5 4 5 4 4 3 2 2 3 3 3 4 3 3 4 4 5 6 7 8 8 9 9 9 9 9 10 11 12 12 11 11 11 11 11 11 12 12 13 12 11 12 13 12 11 12 11 11 12 11 12 12 11 11 12 13 15 18 18 11 6 7 5 5 5 6 6 6 6 8 8 8 8 8 8
5 6 6 6 6 7 6 6 6 6 5 5 5 4 4 4 3 3 3 3 3 3 3 3 3 5 5 6 6 7 8 8 9 10 10 9 10 11 11 10 11 12 12 12 11 11 12 13 13 12 12 13 14 13 12 13 11 12 13 12 12 11 12 12 12 13 14 16 16 16 8 9 6 5 6 7 7 6 6 6 3 8 6 6 10
5 5 5 6 6 7 6 6 6 6 6 5 5 4 5 4 4 4 4 3 4 4 3 4 3 4 5 5 6 7 7 7 8 8 9 10 11 11 11 12 12 11 12 13 12 12 12 13 13 13 13 14 14 14 12 13 12 13 13 13 13 11 12 12 11 13 14 15 15 14 13 9 9 10 6 8 5 5 7 6 7 7 8 9 7
4 4 4 5 6 6 5 5 5 5 5 4 4 5 5 5 5 4 4 4 4 5 5 5 4 4 5 5 6 6 7 7 8 8 8 9 9 10 11 12 13 13 13 12 12 12 14 14 13 14 14 14 14 14 13 13 11 13 12 11 12 12 12 11 11 12 12 13 14 14 11 12 8 6 2 6 8 8 7 7 11 12 9 8 10
3 4 5 6 6 5 4 4 4 4 4 4 5 6 5 5 4 4 4 4 3 4 4 5 5 5 5 5 6 6 6 7 6 6 7 9 9 10 11 13 13 13 13 13 13 14 14 14 15 16 15 17 19 18 17 14 11 12 13 11 12 12 12 11 11 11 12 12 14 12 11 12 11 8 7 9 12 12 9 11 10 3 5 7 9
3 4 5 5 4 4 4 4 4 5 5 6 7 7 6 6 6 5 5 5 5 4 5 5 4 5 6 6 6 5 6 6 8 11 11 9 10 9 9 11 12 13 13 14 14 14 15 15 15 18 19 19 20 21 21 21 21 18 16 12 12 12 12 12 12 12 11 12 14 12 12 14 13 11 9 10 6 3 6 8 12 6 6 7 4
5 5 5 5 5 5 5 5 5 6 6 6 6 7 7 6 6 6 6 6 7 6 6 6 6 6 6 6 7 6 6 6 11 11 13 15 11 11 10 11 11 12 13 14 15 14 13 15 15 16 16 16 18 21 21 23 23 24 26 25 20 16 12 13 13 11 11 12 12 12 14 16 15 10 11 9 10 10 10 10 10 9 11 12 13
5 5 4 4 4 4 4 4 4 5 5 6 6 6 5 4 4 6 6 5 6 6 7 7 7 7 6 7 7 7 7 10 14 14 14 15 14 11 11 10 10 11 11 12 12 12 13 12 12 10 11 14 15 15 17 21 23 25 26 25 25 26 24 18 15 13 12 12 13 15 14 15 14 9 10 8 7 11 12 11 10 10 10 11 9
4 3 3 2 3 3 4 4 4 4 5 6 3 4 3 3 3 4 4 4 5 6 7 7 8 7 8 9 9 9 9 10 12 14 15 16 17 14 10 11 11 12 12 12 13 13 13 12 13 12 12 14 13 14 15 15 18 22 24 25 25 26 25 27 27 20 14 14 14 16 16 14 13 13 10 11 10 13 10 10 8 8 10 11 10
3 3 3 4 4 5 6 6 6 6 6 5 6 5 5 5 5 5 5 5 5 7 5 8 8 8 8 9 10 9 9 10 13 14 15 17 17 15 11 12 12 13 14 14 13 14 14 13 13 12 12 12 13 15 14 14 14 13 14 14 15 19 23 27 27 27 22 17 15 18 17 12 14 13 9 10 12 13 11 13 13 10 10 17 19
5 5 5 5 6 6 7 7 7 7 7 5 5 5 5 6 6 5 5 5 6 6 7 7 7 6 9 8 10 11 9 12 14 15 15 17 17 15 12 12 12 13 14 14 15 15 16 14 14 15 15 14 12 13 13 12 12 12 13 14 15 14 15 15 16 15 15 16 17 18 20 16 14 13 10 10 15 15 16 18 19 19 15 6 2
5 5 5 6 6 6 6 6 7 7 7 6 6 6 6 6 7 6 6 6 6 6 6 5 8 9 7 7 10 12 11 11 13 15 15 15 17 11 11 12 13 13 14 15 15 14 14 14 14 15 16 16 16 17 16 14 12 15 16 15 14 14 15 16 16 16 17 16 16 16 16 16 17 14 12 10 11 11 9 6 6 6 6 9 11
5 5 5 6 6 6 7 7 8 8 7 8 8 8 8 9 7 6 7 7 7 7 7 7 6 8 10 8 8 11 12 10 11 14 15 15 13 9 9 9 11 13 14 14 14 14 14 13 14 15 18 19 18 17 16 16 13 16 16 16 15 15 15 13 14 20 24 24 24 24 24 23 23 22 21 21 15 12 8 9 11 10 11 10 10
5 5 5 6 7 7 7 8 8 8 8 9 9 9 8 7 6 7 8 10 9 8 8 9 8 6 8 11 9 9 13 16 15 14 16 15 12 10 9 10 11 11 12 14 14 13 14 18 15 15 17 18 19 19 19 15 13 15 15 16 17 17 16 12 8 12 20 22 24 25 24 23 23 23 23 22 22 18 13 16 14 11 12 11 11
6 6 7 6 6 7 6 7 7 7 8 8 8 10 9 8 8 7 7 8 9 8 7 8 10 9 9 10 14 13 13 16 17 14 14 15 12 7 9 10 11 11 11 13 13 13 13 13 17 16 16 18 22 21 19 15 13 13 14 14 17 18 17 11 10 12 11 11 12 13 15 18 17 15 14 21 22 20 17 17 11 13 12 10 8
6 6 6 7 6 6 6 7 7 8 9 9 8 8 8 8 8 9 9 8 9 9 9 9 12 11 10 11 12 10 13 14 17 21 17 17 16 10 9 11 12 13 12 12 13 12 13 13 14 18 20 20 21 21 19 19 15 13 13 14 15 19 14 11 12 12 12 12 12 11 13 12 11 11 11 11 13 17 16 13 12 14 10 12 12
6 6 6 7 7 8 7 7 9 9 8 9 9 8 8 9 9 9 10 9 9 10 11 10 11 12 11 11 11 13 12 13 16 20 20 19 16 14 8 11 11 11 12 13 12 14 13 13 12 14 16 16 17 18 19 19 18 14 14 15 16 16 15 13 14 15 12 12 12 10 10 9 9 9 9 9 9 11 13 13 12 13 13 13 12
6 7 7 7 7 8 8 8 8 8 8 8 9 9 8 8 8 8 8 9 11 12 12 10 10 12 12 12 12 13 13 15 13 17 20 21 17 16 11 11 12 11 13 14 15 14 13 13 13 15 17 17 17 19 20 20 22 15 16 20 23 23 18 14 13 11 10 9 9 10 11 10 10 9 8 7 10 10 11 11 10 10 10 11 14
7 6 7 7 7 8 8 9 9 7 8 8 9 10 9 9 10 9 9 10 10 12 12 10 9 11 12 11 10 11 12 13 17 17 19 20 19 15 18 17 15 13 13 16 16 16 14 15 16 18 18 19 19 20 23 26 21 16 22 22 22 23 20 14 12 11 10 9 9 10 10 10 9 9 9 7 8 10 10 10 10 9 9 5 3
6 6 6 7 8 8 8 8 8 7 8 9 9 10 10 9 10 8 7 8 9 10 10 9 10 11 12 12 13 12 12 10 14 18 18 19 18 18 18 20 20 14 12 15 16 16 16 16 16 22 24 23 26 29 29 25 19 25 23 23 22 21 15 13 12 11 10 11 10 10 11 10 10 10 10 9 9 9 9 8 8 7 5 5 7
5 6 7 8 8 8 8 8 7 7 7 8 9 9 9 9 9 8 7 7 8 9 10 10 10 11 12 13 14 14 13 13 13 16 20 19 22 22 20 20 20 19 14 12 13 14 17 24 28 29 28 31 31 29 25 26 29 26 26 24 22 13 13 12 12 11 10 10 10 10 11 11 10 8 7 8 6 6 6 7 9 10 10 10 10
7 8 8 8 8 8 9 8 7 7 8 7 7 7 8 9 9 9 8 8 8 9 10 10 11 12 12 13 14 14 15 15 15 15 15 14 14 16 18 18 19 18 19 17 21 26 26 27 30 30 27 24 17 14 13 14 17 19 20 20 13 13 12 12 10 11 10 10 10 11 10 9 7 5 6 6 8 9 10 9 9 6 10 11 11
8 7 7 8 7 7 8 7 8 8 7 7 7 7 7 7 8 9 8 8 8 9 10 10 11 11 12 13 14 15 16 16 15 14 12 12 11 11 13 14 17 19 15 14 15 13 17 19 15 16 18 23 24 23 22 21 18 15 13 11 10 11 13 12 10 10 9 9 9 7 5 5 4 6 6 7 9 8 9 11 9 8 9 10 11
6 7 7 6 6 7 7 9 9 8 7 7 8 8 7 7 8 9 9 8 9 11 10 11 11 11 13 14 15 16 16 16 16 15 14 14 15 16 15 15 14 14 16 15 13 14 16 18 21 15 13 15 14 12 10 11 11 10 11 11 11 11 13 14 13 10 9 7 9 7 6 6 7 7 7 8 9 8 9 10 12 9 10 13 11
5 5 6 6 6 6 7 7 7 8 9 8 7 7 8 9 10 11 10 8 8 10 12 13 13 12 12 14 16 16 17 19 17 17 21 26 24 20 17 16 16 17 19 25 20 18 17 18 16 17 14 12 12 11 10 10 11 11 11 10 10 10 8 8 10 10 10 11 10 8 8 7 7 8 7 8 9 8 8 9 11 12 10 11 13
4 5 5 5 6 7 7 7 7 8 8 9 10 11 10 13 13 12 14 15 18 20 19 15 15 15 16 15 14 16 16 19 29 36 35 33 32 30 29 30 29 26 28 34 24 19 19 18 17 15 15 13 15 11 11 11 12 11 11 11 9 10 9 10 11 11 9 11 10 7 8 8 8 8 8 9 7 7 9 12 10 10 13 12 11
5 5 6 6 7 8 7 7 7 8 8 9 9 11 14 12 13 18 21 24 26 25 23 26 27 26 20 19 20 28 30 32 32 32 32 32 33 35 34 32 32 31 32 23 17 16 16 17 13 15 15 12 14 13 11 12 12 11 11 10 10 9 10 10 9 8 9 9 8 8 6 9 9 10 10 10 9 7 7 8 9 9 9 10 9
5 6 6 7 7 7 7 8 9 8 9 9 9 11 12 14 16 14 14 16 21 25 27 26 25 24 27 25 22 19 25 29 30 29 30 32 33 35 36 36 34 32 30 31 20 17 15 15 17 16 13 11 15 12 10 8 9 10 9 9 10 9 10 10 9 8 9 9 10 8 6 8 10 11 9 9 10 7 9 9 8 9 9 8 14
5 6 6 7 7 8 7 7 7 8 9 9 10 9 10 11 13 17 17 15 17 20 24 26 26 25 23 22 24 24 27 31 34 32 31 31 32 32 34 36 35 33 31 20 16 15 15 16 14 14 11 11 14 12 9 7 7 9 9 9 9 8 8 9 9 9 9 9 8 9 7 6 7 8 10 11 12 13 10 7 7 7 10 13 8
5 5 6 7 7 7 7 8 8 8 9 9 9 10 10 10 12 14 16 18 18 14 11 13 17 21 24 25 24 23 25 28 31 33 32 31 31 31 31 27 32 33 25 16 14 16 16 15 15 13 11 9 11 8 9 10 6 8 9 8 9 7 8 7 8 8 9 8 9 7 8 7 8 10 10 11 8 10 10 7 8 9 8 9 10
5 6 8 7 6 7 8 8 8 9 9 10 10 10 11 11 12 12 12 14 16 17 18 15 14 16 17 20 26 29 28 26 26 28 31 31 32 32 31 20 18 14 12 10 12 13 14 13 12 12 11 11 12 9 10 9 9 6 9 9 9 8 8 6 7 8 8 8 8 8 8 8 8 8 11 10 10 10 9 7 7 9 13 13 11
5 5 6 7 6 7 7 8 8 9 10 10 10 11 12 12 12 12 13 13 14 15 16 15 14 16 23 23 27 28 27 26 25 28 28 29 29 29 18 14 14 13 13 11 11 11 11 12 12 11 10 10 10 8 7 10 9 7 9 9 8 8 6 6 6 7 6 7 8 9 9 9 10 9 6 9 14 13 9 10 12 12 12 12 9
5 5 6 6 6 7 8 9 9 10 10 11 11 11 11 11 12 12 13 13 14 14 15 16 16 17 17 12 14 22 29 28 26 26 26 24 26 18 12 13 13 15 14 13 11 11 12 12 10 9 9 10 9 7 6 6 5 7 7 8 7 6 6 6 6 6 7 7 7 9 9 9 10 10 10 11 9 8 9 10 9 10 9 13 12
5 5 6 7 8 8 9 8 9 12 10 9 10 10 11 11 12 12 12 13 14 14 15 16 16 15 15 16 19 16 19 26 28 21 16 16 13 11 12 11 13 14 15 14 13 11 12 12 10 9 10 9 10 9 7 6 7 8 7 6 6 7 7 7 7 7 7 7 8 9 8 9 9 9 10 10 11 11 10 9 10 11 11 12 8
4 7 10 12 10 8 8 8 9 9 9 10 10 10 11 11 12 12 12 13 14 14 14 14 14 14 14 15 15 17 20 17 16 16 16 13 12 11 12 13 13 13 13 14 14 14 13 13 12 11 10 11 10 10 9 7 4 3 4 4 4 5 5 6 6 6 5 5 6 7 8 8 9 7 9 9 10 10 10 11 10 9 11 10 8
5 6 7 10 7 7 7 8 8 9 9 9 9 9 11 11 12 13 13 13 14 13 13 13 14 14 14 14 15 16 17 17 15 15 15 14 12 11 10 10 11 11 12 12 12 12 12 12 12 11 11 10 9 8 6 4 4 3 3 3 4 4 5 5 5 5 5 5 6 6 8 7 8 8 8 8 9 10 10 9 9 8 8 9 9
5 6 7 7 7 7 7 7 7 8 9 9 10 11 11 12 12 13 13 13 13 14 14 14 14 14 14 17 25 24 16 16 16 14 13 13 11 10 10 9 9 10 10 10 11 11 11 11 9 8 7 6 6 5 4 3 3 3 2 2 2 2 2 1 2 4 5 6 6 7 7 7 8 9 9 8 7 9 9 10 11 9 10 10 11
5 5 5 5 6 6 6 7 7 9 9 9 10 10 11 12 12 12 13 13 14 13 14 14 13 13 16 26 24 26 17 13 12 12 11 11 10 10 9 9 9 9 10 10 10 10 11 10 8 7 7 7 7 6 5 4 4 3 2 1 1 2 2 3 3 4 5 5 6 6 6 7 7 7 8 10 10 8 8 10 10 10 9 8 8
4 4 4 5 5 6 7 7 8 8 8 9 9 10 11 12 12 12 12 13 13 13 13 14 14 13 14 19 20 21 12 10 10 11 10 10 9 9 9 9 9 9 10 9 9 9 10 9 8 7 7 7 7 7 6 5 5 4 2 1 2 3 3 4 5 5 5 7 7 8 8 8 9 9 10 9 10 9 10 11 9 8 9 9 9
4 4 4 5 5 5 6 6 7 7 7 10 11 10 10 11 11 11 11 12 12 12 12 13 13 13 13 14 14 12 10 10 10 9 10 9 9 9 9 9 9 10 9 10 9 9 9 9 8 8 8 7 8 8 7 6 6 5 4 3 2 3 3 4 5 6 6 7 8 8 9 8 8 9 9 9 9 10 11 10 10 9 9 7 9
3 3 4 4 4 5 5 6 6 7 8 8 7 8 9 9 10 10 10 11 12 12 11 12 12 12 12 12 11 11 11 10 10 10 9 9 9 9 9 9 9 10 9 9 10 10 10 9 9 9 9 8 8 8 8 8 7 6 5 5 3 3 3 4 4 5 5 8 7 8 6 7 7 7 8 8 10 10 9 8 10 11 11 10 8
3 3 3 3 4 5 5 5 6 6 7 7 8 8 9 8 9 10 10 11 11 11 12 12 11 11 11 11 11 11 10 10 9 9 9 9 9 9 8 9 9 9 8 9 9 10 10 10 9 9 9 9 9 8 8 8 8 7 7 6 6 5 5 5 4 5 5 5 7 7 8 9 8 7 8 8 7 8 9 9 8 7 8 9 11
3 3 3 3 3 4 5 5 5 6 6 7 7 8 8 8 9 9 10 11 11 11 10 11 11 11 11 10 10 10 10 10 10 10 10 9 9 9 9 9 9 8 8 8 8 9 9 10 9 9 9 9 9 9 8 8 8 7 7 7 7 6 5 4 5 5 6 6 5 6 7 7 8 8 9 10 9 9 10 8 8 11 9 9 9
3 3 3 3 3 3 3 4 5 6 6 6 6 7 7 8 8 9 9 10 10 10 10 10 10 10 10 10 10 10 10 10 9 9 8 8 9 9 9 9 9 8 8 8 8 8 9 9 9 9 9 9 9 9 9 9 8 8 8 8 8 7 8 8 6 7 5 5 6 6 10 9 7 7 8 9 9 9 9 8 9 7 9 8 6
3 3 3 3 3 3 3 3 4 5 5 6 6 7 7 7 7 7 8 9 9 10 9 10 10 10 9 9 9 9 9 9 9 9 8 8 8 8 9 9 10 10 9 9 10 9 8 8 10 9 9 9 9 9 9 9 9 9 8 7 10 15 15 12 8 7 8 7 7 7 8 8 9 9 9 9 9 7 8 9 9 9 8 7 7
3 3 3 3 3 2 3 3 4 4 5 6 6 6 6 6 6 7 8 8 9 9 9 9 9 9 10 10 10 10 9 9 9 9 9 8 9 9 9 9 9 9 8 9 8 8 8 9 10 9 9 9 10 10 9 9 9 8 8 9 15 16 15 14 13 11 8 6 8 7 8 8 9 8 7 7 8 10 10 9 8 7 7 7 7
4 3 3 2 2 2 2 3 3 4 4 5 6 6 6 6 6 6 6 7 8 8 8 8 8 9 9 9 9 9 9 9 8 8 8 8 9 9 9 9 9 8 8 8 8 8 9 9 9 9 8 9 9 10 9 9 9 9 12 15 15 15 15 12 9 11 12 8 5 6 7 9 9 8 7 5 5 6 7 9 8 7 5 6 7
Wind_Direction
32 32 33 42 37 35 24 15 5 349 333 311 291 293 322 318 311 311 308 295 294 287 283 277 277 276 276 274 273 274 274 274 270 266 262 265 264 264 265 261 257 257 256 257 250 253 255 254 250 250 250 250 243 247 243 241 236 237 239 239 241 232 228 237 251 263 274 243 255 259 202 185 226 192 215 203 200 209 217 207 195 202 214 217 218
29 25 38 42 43 34 29 20 5 355 316 290 276 293 341 342 333 313 298 298 301 294 288 288 284 285 284 283 282 281 281 280 278 270 267 268 268 265 265 262 260 259 257 259 256 252 255 255 256 254 249 250 249 244 240 241 234 236 235 230 238 235 221 234 247 258 271 273 239 146 211 184 237 174 202 196 211 192 204 198 197 201 210 209 213
33 35 41 44 44 45 36 30 16 1 345 337 330 350 16 5 347 317 313 312 305 295 298 298 295 289 288 286 286 284 280 278 276 271 268 267 268 268 264 263 259 258 258 257 258 256 254 253 256 255 253 252 247 246 242 241 236 234 237 228 235 235 227 226 240 252 260 266 244 249 239 200 218 207 205 217 204 165 199 202 203 210 215 207 213
35 41 46 55 51 51 45 31 28 18 7 4 354 8 11 17 356 332 325 314 308 304 301 301 299 297 292 289 286 283 281 275 275 273 271 271 270 269 268 263 260 257 259 262 261 257 254 258 256 254 253 251 251 249 245 240 239 241 243 237 236 239 231 229 228 241 255 265 265 244 253 210 231 224 162 181 181 199 209 211 193 205 210 214 217
34 41 40 49 43 42 35 29 27 24 17 9 0 359 12 14 5 341 332 318 318 314 305 300 293 291 293 294 292 289 284 282 280 277 273 270 269 269 267 266 263 259 258 259 259 256 257 254 260 257 254 253 254 247 249 243 240 239 241 239 238 240 240 235 238 239 250 257 267 260 228 237 227 204 170 179 200 205 205 206 198 201 208 216 217
34 38 34 40 38 33 28 22 21 18 9 6 359 356 1 14 358 355 343 331 319 306 306 305 296 293 289 286 287 288 287 286 284 283 281 279 274 271 268 260 260 261 262 260 258 256 255 258 258 257 255 254 257 256 250 247 244 241 242 242 240 240 241 240 237 240 244 252 259 270 234 229 229 221 194 188 184 197 205 209 187 211 195 198 210
39 42 37 41 36 30 21 15 7 7 6 357 348 355 6 6 5 359 348 326 324 322 318 305 292 292 288 286 283 283 285 281 279 280 281 281 279 275 272 269 265 262 258 258 257 255 255 256 258 254 253 253 255 257 255 253 246 245 242 241 243 237 242 243 237 240 241 249 255 252 260 238 214 237 196 187 203 183 179 175 209 203 199 197 202
42 44 40 41 38 26 16 4 2 0 350 344 350 359 1 6 2 350 341 338 337 332 326 320 311 290 286 283 282 282 281 282 278 274 274 273 273 274 275 273 272 269 266 261 257 254 253 252 252 252 250 251 251 254 251 252 252 252 246 240 243 238 242 244 241 241 244 248 250 257 246 253 230 229 181 166 210 225 199 182 205 206 195 198 202
55 52 47 44 34 18 6 359 349 344 342 346 358 1 359 357 350 341 340 332 319 320 312 310 307 299 283 274 277 273 271 270 267 270 277 274 270 273 275 274 271 271 270 267 263 262 261 257 256 254 247 248 248 250 251 249 252 256 253 239 242 241 242 242 241 240 243 246 253 250 252 250 239 212 196 195 200 205 188 199 221 180 152 180 203
68 57 52 42 25 14 1 359 347 350 359 1 1 355 353 352 345 344 342 335 327 318 314 302 290 291 295 292 278 265 264 263 262 261 259 268 278 276 275 274 275 274 273 272 269 263 261 260 258 252 250 249 248 248 249 249 247 248 256 252 244 244 242 243 242 240 242 246 249 252 250 250 242 222 213 214 193 143 186 193 212 181 148 198 210
60 49 42 27 18 6 6 357 353 1 360 356 353 350 347 343 338 334 334 330 322 321 313 306 302 295 289 288 288 278 268 265 274 271 270 264 263 271 269 271 270 273 275 274 274 275 270 265 266 262 253 249 250 248 249 249 246 246 247 248 247 246 248 244 244 240 241 245 251 249 247 254 250 229 223 212 208 206 205 204 203 168 185 180 207
58 53 38 23 13 4 356 350 352 353 356 354 344 340 327 323 324 322 318 317 315 309 299 295 297 294 286 281 274 272 273 279 283 283 277 275 269 269 273 271 268 266 264 268 270 273 273 269 264 260 257 257 257 257 249 244 244 245 246 246 245 243 241 242 248 248 239 244 249 248 249 247 253 235 227 208 194 202 210 200 193 180 185 199 196
68 59 43 26 9 358 351 352 350 355 356 343 334 322 322 315 320 324 320 316 305 301 304 300 294 292 283 282 277 270 269 269 273 275 275 276 277 274 273 270 270 269 269 267 266 267 269 270 275 271 269 255 251 250 258 258 248 243 244 246 245 243 242 242 242 244 249 248 247 252 245 248 248 244 220 209 194 212 202 202 194 191 198 201 204
74 53 39 21 10 1 359 353 354 353 347 345 341 336 336 335 333 322 312 312 313 308 304 299 297 298 295 293 289 283 274 280 278 275 274 274 274 275 269 270 268 269 269 267 265 266 263 265 269 269 269 266 263 259 254 254 257 255 250 246 245 244 243 243 244 244 243 245 247 252 253 243 242 247 225 194 192 203 184 203 196 197 201 212 214
42 28 19 14 4 2 357 351 349 344 343 342 337 333 331 326 326 323 321 316 313 314 315 311 303 296 292 291 291 284 274 279 278 274 270 270 271 270 269 267 265 265 266 263 260 260 262 263 264 269 273 269 263 259 260 259 258 257 254 252 248 247 244 240 237 238 241 242 245 248 255 252 248 245 236 201 204 204 198 202 199 203 209 206 61
34 18 15 10 2 356 353 346 340 339 337 336 333 331 330 327 323 322 316 311 301 295 293 291 293 296 289 286 287 284 279 274 272 270 266 266 270 269 266 264 264 266 267 266 263 262 263 262 264 268 270 270 266 258 254 259 261 260 257 256 256 252 250 243 237 232 235 237 239 244 248 250 245 241 233 214 211 207 203 207 202 188 160 190 206
23 10 10 3 358 354 353 350 345 346 343 341 340 338 335 329 326 329 319 310 307 302 294 293 290 294 296 288 276 283 283 280 277 279 279 275 277 274 272 268 266 266 265 268 267 265 263 260 265 271 274 273 268 262 258 255 258 259 260 260 259 258 257 252 237 236 239 240 243 245 248 251 251 248 242 228 216 195 175 187 197 176 181 195 194
13 5 2 360 356 358 357 357 350 345 345 342 336 331 326 320 321 325 318 315 310 304 300 297 293 280 295 299 292 288 293 294 291 282 281 278 269 273 274 273 268 265 268 266 267 264 261 258 254 260 265 266 268 266 263 259 259 259 260 260 262 262 261 257 248 243 241 241 242 245 247 251 251 250 246 234 207 191 178 202 196 169 194 187 187
4 358 356 354 358 360 356 356 349 344 339 334 332 325 323 322 316 317 314 309 298 299 301 303 304 299 297 298 297 292 291 295 295 290 283 281 277 266 269 274 272 267 271 274 272 272 270 264 257 251 253 264 269 269 267 260 258 256 259 258 260 262 262 262 251 251 247 244 246 247 249 250 249 246 243 234 208 197 199 208 185 187 191 187 165
350 350 354 355 356 357 351 350 345 342 334 328 326 323 317 318 321 320 315 312 311 311 310 307 306 300 299 301 299 293 296 296 299 298 296 289 279 272 271 274 272 275 276 278 281 278 275 274 266 263 261 258 263 267 268 261 256 257 256 255 256 259 264 262 251 250 252 245 244 237 240 241 242 241 240 230 214 203 206 206 197 193 185 183 179
352 353 351 350 351 349 347 348 340 335 332 326 320 317 319 318 317 317 313 312 311 308 304 301 300 295 295 299 295 293 288 289 292 294 294 290 272 275 266 263 268 274 281 281 278 281 283 280 282 272 270 271 270 272 270 266 259 256 252 253 251 259 265 264 261 252 251 250 247 243 243 238 236 234 229 217 208 207 207 208 204 202 197 197 192
346 345 344 345 344 341 340 338 336 328 324 322 321 314 310 303 301 307 305 302 300 300 299 298 296 292 291 293 291 290 287 285 289 292 291 291 281 264 271 266 268 279 279 278 279 278 277 280 280 281 284 282 280 278 273 269 266 261 256 256 258 259 260 259 262 259 250 246 243 245 242 232 231 225 214 204 204 205 205 201 204 204 206 203 193
341 337 339 339 341 338 336 335 330 328 321 320 314 309 310 314 311 304 297 299 295 298 296 290 286 288 292 292 285 287 293 292 289 288 288 287 283 268 263 268 268 265 269 276 276 280 283 284 282 284 288 291 289 283 279 276 272 264 263 263 261 261 261 259 259 257 249 242 236 236 235 230 223 219 209 202 200 198 201 196 195 194 201 203 172
337 339 342 338 335 334 333 328 321 316 319 321 318 313 312 311 307 303 302 299 301 302 302 304 303 298 300 301 300 297 296 289 292 291 289 286 284 280 279 278 279 272 265 270 276 279 283 284 287 291 292 292 291 289 284 279 272 270 267 264 261 260 258 259 256 252 247 242 232 231 233 228 223 219 212 204 198 192 189 188 179 173 149 96 86
347 342 342 338 334 330 326 320 316 321 323 322 319 315 310 313 310 308 310 301 298 299 299 303 301 299 300 297 298 297 296 294 290 289 289 290 289 288 284 280 279 278 276 273 271 276 277 281 285 286 286 287 285 285 282 278 274 270 266 262 259 257 255 253 252 248 240 232 230 230 234 230 222 215 205 198 176 148 117 78 87 94 89 83 73
350 347 343 334 327 323 325 318 317 316 314 311 305 301 302 307 306 306 306 301 299 297 299 302 301 300 296 296 295 297 297 296 293 294 299 294 289 284 281 281 280 276 269 270 270 272 271 271 271 273 275 275 273 274 277 278 277 272 266 260 254 252 250 249 240 237 233 234 230 234 232 231 215 206 185 151 154 156 141 133 129 112 119 115 96
347 337 329 324 322 326 327 327 325 319 319 314 306 301 300 298 297 293 293 297 299 295 293 294 293 295 296 296 296 298 298 296 295 297 305 304 307 310 309 304 296 290 284 282 277 267 266 270 271 264 264 268 268 268 270 274 274 267 261 250 242 241 246 244 238 237 233 232 234 223 195 190 187 171 155 154 164 159 159 150 137 134 125 124 112
334 324 324 323 326 329 325 322 320 313 312 312 309 307 299 292 291 290 294 297 299 297 295 295 293 297 301 299 299 298 296 295 294 298 301 303 305 306 303 299 296 296 293 290 288 285 283 281 278 271 265 262 260 255 253 261 260 260 259 257 249 242 243 245 245 243 236 227 230 222 214 197 178 171 166 170 167 154 159 155 149 134 136 133 120
317 319 325 328 320 324 319 318 314 312 308 303 291 285 295 298 292 287 274 269 273 284 294 291 289 288 290 292 295 295 295 292 289 295 297 297 298 300 302 300 301 297 292 294 294 290 286 284 283 281 276 267 258 257 262 264 267 263 256 249 251 248 241 232 238 233 232 232 231 212 209 174 178 168 163 167 167 158 162 154 154 145 155 153 144
328 333 330 327 320 322 317 312 310 306 306 308 307 301 274 268 272 281 291 284 274 273 274 277 283 291 289 282 279 282 284 286 293 297 296 296 296 297 298 298 296 295 295 295 292 288 283 283 281 279 278 275 266 261 271 268 265 264 263 256 246 245 242 241 236 235 225 225 223 205 190 174 166 169 163 167 156 161 165 158 154 153 154 152 141
339 328 329 322 321 315 310 310 313 310 307 306 307 306 309 300 274 267 269 278 283 281 274 272 276 277 279 286 284 280 282 284 287 289 294 299 302 302 302 300 298 297 297 297 287 280 282 283 279 280 278 275 265 261 262 262 263 264 263 259 250 238 237 239 238 231 230 221 215 201 175 170 172 172 173 168 159 140 150 158 155 162 148 143 134
331 322 315 311 312 312 306 309 307 306 305 302 302 304 306 307 306 290 270 272 280 285 287 284 277 274 277 278 283 290 292 292 293 295 297 298 300 301 301 300 297 296 295 295 289 284 280 281 282 282 278 272 268 262 255 244 255 257 252 249 247 242 238 240 235 230 228 222 211 197 170 173 172 173 162 160 163 151 152 155 159 159 147 141 146
326 313 311 312 315 312 307 303 302 303 301 302 301 298 296 300 302 309 310 299 283 275 278 284 290 290 283 279 279 283 291 297 300 301 300 299 299 298 298 298 297 298 298 291 283 282 282 281 278 277 273 267 265 264 261 246 236 249 247 244 247 244 238 235 233 234 228 220 208 198 175 156 142 150 163 162 166 168 167 154 144 129 144 147 129
316 317 319 314 308 308 305 305 303 300 297 294 294 296 294 293 296 299 304 312 315 305 281 277 287 292 296 297 294 289 289 293 297 300 302 302 302 301 300 298 297 296 292 287 284 284 284 284 283 280 275 266 264 259 265 267 243 245 248 241 243 239 243 241 235 232 228 215 203 189 175 161 145 157 165 168 163 164 159 149 136 135 142 141 136
321 303 296 296 300 302 305 302 299 297 298 296 296 296 293 293 293 293 295 300 304 305 309 307 299 295 297 300 300 298 297 296 296 299 303 306 306 304 302 296 295 297 293 284 282 283 285 285 285 283 278 273 274 266 270 269 268 245 247 245 243 243 244 239 231 228 223 213 196 182 174 161 160 149 158 159 165 171 166 151 145 148 154 148 135
318 311 313 308 299 297 297 297 297 295 295 295 296 294 292 294 293 293 294 292 291 296 299 300 304 302 299 297 296 297 299 302 303 305 307 307 307 309 306 301 299 299 298 294 289 283 281 282 283 283 280 278 274 267 261 270 261 248 251 248 243 241 238 229 227 221 208 199 186 175 172 172 164 161 152 160 166 168 159 164 164 161 152 148 135
316 309 311 308 306 299 295 291 288 288 289 291 292 291 291 291 292 292 292 291 294 295 296 301 307 308 306 298 295 303 306 309 311 311 310 311 312 310 300 300 302 304 303 301 296 294 293 294 289 278 277 276 273 268 270 264 248 245 245 244 244 241 232 224 220 214 201 192 181 171 169 166 164 162 161 168 168 161 153 152 144 144 144 139 130
288 296 301 302 303 300 294 292 290 292 290 289 291 293 295 295 293 292 292 293 295 297 300 303 303 303 308 311 316 314 312 314 316 315 314 315 316 314 313 308 307 307 307 307 306 304 300 298 296 290 291 288 286 284 274 262 259 258 253 248 245 244 229 224 218 201 193 180 179 176 169 164 162 159 163 163 161 161 156 145 140 135 132 133 131
298 291 291 297 296 296 295 296 297 297 298 295 296 297 297 298 298 297 295 295 295 295 296 298 300 304 310 313 314 316 318 320 322 319 320 320 319 318 316 313 310 310 311 312 313 311 310 307 305 300 296 293 289 283 281 275 268 262 263 256 246 244 232 222 208 196 183 181 172 166 163 165 160 156 158 155 154 152 146 141 137 131 133 140 140
301 301 302 299 300 296 298 296 298 298 298 300 300 301 300 298 296 297 297 297 296 297 300 303 305 306 309 313 316 321 318 317 316 314 316 319 321 322 321 318 317 315 316 316 315 314 313 312 312 313 312 310 308 305 302 300 295 288 286 266 248 227 212 203 190 172 161 156 154 150 152 146 152 146 145 144 145 145 143 134 126 114 118 120 122
299 293 291 294 297 301 298 299 301 303 306 305 303 302 301 302 302 302 303 302 303 304 304 304 305 308 310 313 315 319 318 313 311 314 317 318 321 321 322 320 320 318 317 318 317 316 316 317 321 323 327 330 329 331 329 320 316 309 287 284 262 252 220 89 117 135 136 135 140 139 141 137 139 139 136 131 122 127 125 129 130 126 133 133 130
293 297 303 304 308 310 309 310 311 311 307 305 307 310 310 308 308 308 307 308 307 306 306 308 308 311 313 317 319 323 319 309 313 315 317 320 321 321 321 321 320 319 317 317 320 320 322 326 332 339 341 344 344 343 344 342 338 325 316 311 61 95 89 101 91 98 115 122 114 108 113 122 114 105 111 124 129 121 113 121 127 128 122 114 113
290 300 306 316 319 319 319 314 314 313 316 317 315 312 310 311 311 310 309 309 309 310 311 312 312 315 317 319 322 323 318 316 317 317 317 320 319 320 321 322 321 318 317 318 322 323 322 324 331 341 345 344 348 349 350 353 344 343 348 20 70 94 94 97 104 97 87 92 103 110 109 113 113 117 123 124 120 116 120 124 120 118 122 120 120
310 312 316 320 317 316 314 315 318 317 314 313 311 311 313 314 314 314 312 312 312 312 312 312 315 317 317 320 323 324 322 321 319 320 319 319 320 320 321 321 321 321 325 329 332 332 330 331 338 344 345 348 348 352 355 354 356 360 9 21 50 64 84 103 110 121 117 113 115 114 115 111 113 115 118 122 117 117 123 123 122 121 120 112 119
310 314 316 315 318 315 310 316 318 315 314 316 320 317 317 317 316 316 317 314 314 314 313 313 315 315 317 320 322 323 322 322 319 319 321 323 321 321 322 325 327 328 332 335 336 336 339 344 346 348 345 349 351 350 356 356 359 5 7 26 56 65 74 85 85 89 103 116 116 114 106 115 114 110 112 111 120 121 118 117 124 124 128 131 124
295 294 290 295 298 302 310 315 318 318 320 323 322 323 322 320 320 320 319 319 320 319 317 315 313 314 317 318 320 321 320 317 318 322 323 326 328 327 328 327 329 331 338 341 340 343 347 350 352 350 349 350 352 351 354 357 1 3 10 15 29 37 39 52 70 89 97 96 106 104 109 113 103 103 107 111 107 104 105 113 107 112 118 129 140
278 267 276 278 288 293 299 311 317 322 322 319 321 323 324 322 321 321 321 321 320 319 319 318 318 318 318 319 319 319 319 321 323 326 328 327 327 329 333 334 332 334 340 342 344 347 352 357 357 354 352 353 354 358 3 3 7 6 6 10 19 34 34 51 57 78 89 104 97 107 108 105 108 109 107 110 112 113 113 108 120 131 128 126 131
277 277 272 273 277 287 301 313 313 317 321 321 318 317 318 321 323 325 327 328 326 324 321 321 321 321 321 319 318 318 320 321 323 325 329 333 335 335 336 339 343 341 340 346 350 353 355 355 350 350 352 355 3 10 12 14 15 15 18 26 20 23 33 39 70 70 72 81 85 87 109 104 95 99 107 115 114 120 119 114 122 110 127 124 119
270 268 272 277 280 291 301 308 310 313 315 315 316 317 323 324 327 327 327 325 326 325 324 324 322 324 323 322 321 320 320 322 324 330 333 333 333 335 337 340 342 347 352 358 358 357 355 354 1 360 357 1 6 11 16 14 16 16 19 19 29 41 47 43 51 61 67 78 85 90 93 91 102 105 106 107 113 107 110 118 119 123 121 124 128
262 256 257 263 272 288 300 303 299 302 307 305 307 311 318 321 330 332 327 325 322 324 327 327 327 325 323 324 327 326 327 327 329 329 330 333 337 338 341 349 352 351 358 0 356 358 346 2 8 3 3 9 17 16 18 18 16 16 14 26 35 44 48 46 47 50 64 83 83 79 86 90 94 94 94 102 108 115 119 124 125 131 129 137 140
262 263 263 262 274 289 298 297 294 301 302 304 303 304 305 313 326 326 325 321 320 320 324 326 327 328 329 326 324 324 326 326 328 331 334 339 342 345 350 348 353 348 347 350 352 353 358 5 6 6 1 5 12 20 19 21 25 29 35 38 40 40 41 41 46 47 54 62 63 70 90 99 104 100 104 93 99 105 121 125 135 136 128 129 136